Location: Unspecified
(0.0000°N, 0.0000°E)
Time: 06:45:27
(UTC+00:00)

Hubble Space Telescope - Pass Details

Date: 13 October 2019
Orbit: 536 x 540 km, 28.5° (Epoch: 14 October)

Event Time Altitude Azimuth Distance (km) Brightness Sun altitude
Rises 19:18:16 0° 327° (NNW) 2,668 4.6 -22.8°
Reaches altitude 10° 19:21:12 10° 348° (NNW) 1,779 3.4 -23.5°
Enters shadow 19:21:27 11° 351° (N) 1,720 3.3 -23.6°
